Home > Weather > Lethbridge > Past weeks

Flag for Canada Past Weather in Lethbridge, Alberta, Canada — Yesterday and Last 2 Weeks

Now
59 °F

Mostly cloudy.


Feels Like: 57 °F
Forecast: 57 / 81 °F
Wind: 9 mph from Northwest

Location: Lethbridge

Current Time: Jul 1, 2016 at 2:13:46 AM

Latest Report: Jul 1, 2016 at 1:00 AM


Visibility: 9 mi

Pressure: 30.03 "Hg (27.08 "Hg at 872m altitude)

Humidity: 94%

Dew Point: 57 °F

Location of LethbridgeLocation

Past Weather in Lethbridge — Graph

°F

Lethbridge Temperature Yesterday

Maximum temperature yesterday: 84 °F (at 3:00 PM)
Minimum temperature yesterday: 57 °F (at 1:00 AM)
Average temperature yesterday: 67 °F

High & Low Weather Summary for the Past Weeks

 TemperatureHumidityPressure
High84 °F (Jun 30, 3:00 PM)100% (Jun 27, 6:00 AM)30.31 "Hg (Jun 27, 6:00 AM)
Low39 °F (Jun 17, 4:00 AM)13% (Jun 20, 5:00 PM)29.70 "Hg (Jun 16, 5:00 AM)
Average62 °F57%30.03 "Hg
* Reported Jun 16 1:00 AM — Jul 1 1:00 AM, Lethbridge, Weather by CustomWeather, © 2016

Note: Actual official high and low records may vary slightly from our data, if they occured in-between our weather recording intervals... More about our weather records

Advertising

Lethbridge Weather History for the Previous 24 Hours

Scroll right to see more
 ConditionsComfort  
Time TempWeatherWind HumidityBarometerVisibility
1:00 AM
Fri, Jul 1
59 °FMostly cloudy.9 mph94%30.03 "Hg9 mi
12:00 AM57 °FPassing clouds.10 mph94%30.03 "Hg9 mi
11:00 PM
Thu, Jun 30
59 °FPassing clouds.12 mph94%30.00 "Hg9 mi
10:00 PM59 °FScattered clouds.6 mph94%30.01 "Hg45 mi
9:00 PM63 °FScattered clouds.12 mph83%29.98 "Hg40 mi
8:00 PM66 °FScattered clouds.13 mph73%29.96 "Hg40 mi
7:00 PM70 °FScattered clouds.13 mph64%29.95 "Hg40 mi
6:00 PM72 °FPartly sunny.10 mph57%29.92 "Hg40 mi
5:00 PM73 °FPartly sunny.12 mph69%29.91 "Hg30 mi
4:00 PM72 °FThunderstorms. Partly sunny.8 mph73%29.92 "Hg30 mi
3:00 PM84 °FBroken clouds.18 mph35%29.89 "Hg40 mi
2:00 PM81 °FPartly sunny.10 mph42%29.94 "Hg40 mi
1:00 PM82 °FScattered clouds.14 mph42%29.98 "Hg40 mi
12:00 PM81 °FPartly sunny.14 mph45%30.00 "Hg40 mi
11:00 AM77 °FPassing clouds.17 mph51%30.02 "Hg40 mi
10:00 AM73 °FPassing clouds.18 mph61%30.03 "Hg40 mi
9:00 AM70 °FPassing clouds.12 mph69%30.04 "Hg40 mi
8:00 AM61 °FPassing clouds.15 mph94%30.06 "Hg40 mi
7:00 AM61 °FPartly sunny.14 mph94%30.08 "Hg40 mi
6:00 AM59 °FPassing clouds.6 mph94%30.09 "Hg40 mi
5:00 AM61 °FLight rain. Overcast.No wind88%30.09 "Hg9 mi
4:00 AM59 °FLight rain. Overcast.5 mph94%30.10 "Hg9 mi
3:00 AM59 °FOvercast.9 mph88%30.10 "Hg9 mi
2:00 AM59 °FPassing clouds.5 mph88%30.09 "Hg9 mi
Weather by CustomWeather, © 2016

See weather overviewHow to use our weather pages